Regional Weather Roundup
Issued by NWS Jackson, KY

Home | Current Version | Previous Version | Graphics & Text | Print | Product List | Glossary On
Versions: 1 2 3 4 5 6 7 8 9 10 11 12 13 14 15 16 17 18 19 20 21 22 23 24 25 26 27 28 29 30 31 32 33 34 35 36 37 38 39 40 41 42 43 44 45 46 47 48 49 50
000
ASUS43 KJKL 161811
RWRJKL

EAST KENTUCKY HOURLY WEATHER ROUNDUP
NATIONAL WEATHER SERVICE JACKSON KY
200 PM EDT WED APR 16 2014

NOTE: "FAIR" INDICATES FEW OR NO CLOUDS BELOW 12,000 FEET WITH
NO SIGNIFICANT WEATHER AND/OR OBSTRUCTIONS TO VISIBILITY.

* THESE REPORTS ARE NOT UNDER NWS QUALITY CONTROL AND MAY NOT
  REPORT WEATHER SUCH AS PRECIPITATION AND FOG.

KYZ079-080-083-085-087-088-110-112-115-119-120-161900
...EASTERN KENTUCKY...

CITY           SKY/WX    TMP DP  RH WIND       PRES   REMARKS
JACKSON        SUNNY     47  18  31 VRB5      30.34F
6HR MIN TEMP:  29; 6HR MAX TEMP:  47;

LONDON         SUNNY     49  18  29 E9        30.32F
6HR MIN TEMP:  31; 6HR MAX TEMP:  49;

SOMERSET*      SUNNY     48  19  32 E8        30.34F
MONTICELLO*    SUNNY     50  21  32 VRB6      30.33F
6HR MIN TEMP:  38; 6HR MAX TEMP:  50;

WILLIAMSBURG*  SUNNY     48  21  34 E7        30.31
MIDDLESBORO*   SUNNY     50  19  29 SE5       30.32F
HARLAN APT*    CLEAR     50  21  32 CALM      30.31F
BLACK MTN*       N/A     37  18  44 NW1         N/A
PIKEVILLE APT* SUNNY     45  16  31 SE6       30.35F
BIG SANDY*     CLEAR     46  19  33 SE7       30.36F
6HR MIN TEMP:  29; 6HR MAX TEMP:  47;

MOREHEAD APT*  CLEAR     46  18  31 SE9       30.39F
$$

KYZ035-036-041-042-044-050-067-078-099-161900
...CENTRAL KENTUCKY...

CITY           SKY/WX    TMP DP  RH WIND       PRES   REMARKS
MT STERLING*   SUNNY     45  19  36 S8        30.38F
FLEMING/MASON* SUNNY     45  19  36 SE9       30.39F
DANVILLE*      SUNNY     45  23  42 SE3       30.35F
LEXINGTON      SUNNY     48  18  30 SE9       30.36F
6HR MIN TEMP:  31; 6HR MAX TEMP:  48;

FRANKFORT      SUNNY     47  21  35 E13       30.36F
6HR MIN TEMP:  28; 6HR MAX TEMP:  47;

$$

KYZ091>093-OHZ055-061-077-WVZ005-015-034-035-042-161900
...SOUTHERN OHIO/WEST VIRGINIA...

CITY           SKY/WX    TMP DP  RH WIND       PRES   REMARKS
COVINGTON      PTSUNNY   45  18  34 SE9G20    30.37F
COLUMBUS       MOSUNNY   43  21  41 SE13      30.41F
DAYTON         MOSUNNY   43  20  39 SE13      30.39F
WILMINGTON     SUNNY     42  19  39 SE10G20   30.38F
HUNTINGTON     SUNNY     46  18  32 VRB6      30.39F
CHARLESTON     MOSUNNY   46  21  37 NE8       30.39F
PINEVILLE*     SUNNY     48  21  34 MISG      30.39F
BECKLEY        SUNNY     41  16  36 SE5       30.32F
BLUEFIELD      SUNNY     45  13  27 E9        30.31F
$$

VAZ002-007-008-TNZ017-027-036-066-071-161900
...SOUTHWEST VIRGINIA/EAST TENNESSEE...

CITY           SKY/WX    TMP DP  RH WIND       PRES   REMARKS
WISE*          SUNNY     45  14  29 E3        30.31S
ABINGDON*      SUNNY     49  19  29 E9        30.30F
BRISTOL        MOSUNNY   52  20  28 N9        30.30F
KNOXVILLE      MOSUNNY   53  26  35 NE12G17   30.29F
OAK RIDGE      SUNNY     53  19  26 E8G17     30.30F
CROSSVILLE     SUNNY     51  18  27 VRB6      30.27F
NASHVILLE      MOSUNNY   52  23  32 NE5       30.30F
$$

...KEY TO REMARKS...
VSB - VISIBILITY IN MILES
WCI - WIND CHILL INDEX
HX  - HEAT INDEX

$$



USA.gov is the U.S. government's official web portal to all federal, state and local government web resources and services.